• In United Kingdom
  • List of Countries
  • For 7 days
  • Water Temperature
  • Satellite Maps
  • Weather Map
  • Weather Widgets
  • user-avatar
    Login

    Hourly Weather Acapulco

    Today, 25 November, Saturday

    Time Temperature Precipitation Wind Pressure Humidity
    00:00 +25°C° 0 mm 2 mps 757 mmHg 89%
    01:00 +25°C° 0 mm 2 mps 756 mmHg 88%
    02:00 +24°C° 0 mm 2 mps 756 mmHg 87%
    03:00 +24°C° 0 mm 2 mps 756 mmHg 86%
    04:00 +24°C° 0 mm 2 mps 756 mmHg 85%
    05:00 +24°C° 0 mm 2 mps 756 mmHg 83%
    06:00 +26°C° 0 mm 2 mps 757 mmHg 77%
    07:00 +27°C° 0 mm 1 mps 757 mmHg 70%
    08:00 +29°C° 0 mm 1 mps 757 mmHg 64%
    09:00 +31°C° 0 mm 1 mps 757 mmHg 59%
    10:00 +32°C° 0 mm 1 mps 757 mmHg 54%
    11:00 +34°C° 0 mm 1 mps 757 mmHg 49%
    12:00 +34°C° 0 mm 2 mps 756 mmHg 51%
    13:00 +34°C° 0 mm 2 mps 755 mmHg 53%
    14:00 +34°C° 0 mm 3 mps 755 mmHg 55%
    15:00 +31°C° 0 mm 3 mps 755 mmHg 64%
    16:00 +29°C° 0 mm 2 mps 755 mmHg 73%
    17:00 +27°C° 0 mm 2 mps 755 mmHg 82%
    18:00 +27°C° 0 mm 2 mps 755 mmHg 85%
    19:00 +26°C° 0 mm 2 mps 756 mmHg 87%
    20:00 +26°C° 0 mm 2 mps 757 mmHg 90%
    21:00 +25°C° 0 mm 2 mps 757 mmHg 89%
    22:00 +25°C° 0 mm 2 mps 757 mmHg 88%
    23:00 +25°C° 0 mm 2 mps 757 mmHg 87%

    Tomorrow, 26 November, Sunday

    Time Temperature Precipitation Wind Pressure Humidity
    00:00 +25°C° 0 mm 2 mps 757 mmHg 84%
    01:00 +25°C° 0 mm 2 mps 756 mmHg 82%
    02:00 +25°C° 0 mm 2 mps 756 mmHg 80%
    03:00 +24°C° 0 mm 2 mps 756 mmHg 77%
    04:00 +24°C° 0 mm 2 mps 756 mmHg 74%
    05:00 +24°C° 0 mm 2 mps 756 mmHg 71%
    06:00 +26°C° 0 mm 2 mps 756 mmHg 65%
    07:00 +28°C° 0 mm 1 mps 757 mmHg 59%
    08:00 +29°C° 0 mm 1 mps 757 mmHg 53%
    09:00 +31°C° 0 mm 1 mps 757 mmHg 50%
    10:00 +33°C° 0 mm 1 mps 757 mmHg 47%
    11:00 +34°C° 0 mm 1 mps 757 mmHg 44%
    12:00 +35°C° 0 mm 2 mps 756 mmHg 47%
    13:00 +35°C° 0 mm 2 mps 755 mmHg 50%
    14:00 +34°C° 0 mm 3 mps 755 mmHg 54%
    15:00 +31°C° 0 mm 2 mps 754 mmHg 63%
    16:00 +30°C° 0 mm 2 mps 754 mmHg 72%
    17:00 +28°C° 0 mm 2 mps 754 mmHg 81%
    18:00 +27°C° 0 mm 2 mps 755 mmHg 83%
    19:00 +26°C° 0 mm 2 mps 756 mmHg 84%
    20:00 +26°C° 0 mm 2 mps 756 mmHg 85%
    21:00 +26°C° 0 mm 2 mps 756 mmHg 83%
    22:00 +26°C° 0 mm 2 mps 757 mmHg 81%
    23:00 +25°C° 0 mm 1 mps 757 mmHg 79%

    Day after tomorrow, 27 November, Monday

    Time Temperature Precipitation Wind Pressure Humidity
    00:00 +25°C° 0 mm 1 mps 756 mmHg 77%
    01:00 +25°C° 0 mm 1 mps 756 mmHg 74%
    02:00 +25°C° 0 mm 1 mps 756 mmHg 72%
    03:00 +25°C° 0 mm 2 mps 756 mmHg 69%
    04:00 +24°C° 0 mm 2 mps 756 mmHg 66%
    05:00 +24°C° 0 mm 2 mps 756 mmHg 63%
    06:00 +26°C° 0 mm 1 mps 756 mmHg 58%
    07:00 +27°C° 0 mm 1 mps 757 mmHg 54%
    08:00 +29°C° 0 mm 1 mps 757 mmHg 50%
    09:00 +31°C° 0 mm 1 mps 757 mmHg 48%
    10:00 +32°C° 0 mm 1 mps 757 mmHg 45%
    11:00 +34°C° 0 mm 1 mps 756 mmHg 43%
    12:00 +35°C° 0 mm 2 mps 756 mmHg 46%
    13:00 +34°C° 0 mm 2 mps 755 mmHg 50%
    14:00 +34°C° 0 mm 3 mps 754 mmHg 54%
    15:00 +31°C° 0 mm 3 mps 754 mmHg 64%
    16:00 +29°C° 0 mm 2 mps 754 mmHg 74%
    17:00 +27°C° 0 mm 2 mps 754 mmHg 84%
    18:00 +27°C° 0 mm 2 mps 754 mmHg 86%
    19:00 +26°C° 0 mm 2 mps 755 mmHg 89%
    20:00 +26°C° 0 mm 2 mps 756 mmHg 91%
    21:00 +25°C° 0 mm 2 mps 756 mmHg 90%
    22:00 +25°C° 0 mm 1 mps 756 mmHg 88%
    23:00 +25°C° 0 mm 1 mps 756 mmHg 87%

    28 November, Tuesday

    Time Temperature Precipitation Wind Pressure Humidity
    00:00 +25°C° 0 mm 2 mps 756 mmHg 85%
    01:00 +24°C° 0 mm 2 mps 755 mmHg 83%
    02:00 +24°C° 0 mm 2 mps 755 mmHg 81%
    03:00 +24°C° 0.1 mm 2 mps 755 mmHg 78%
    04:00 +24°C° 0.1 mm 2 mps 755 mmHg 76%
    05:00 +24°C° 0.1 mm 2 mps 755 mmHg 73%
    06:00 +26°C° 0.1 mm 2 mps 756 mmHg 67%
    07:00 +28°C° 0.1 mm 1 mps 757 mmHg 61%
    08:00 +29°C° 0.1 mm 1 mps 757 mmHg 55%
    09:00 +31°C° 0.1 mm 1 mps 757 mmHg 53%
    10:00 +32°C° 0.1 mm 1 mps 757 mmHg 51%
    11:00 +34°C° 0.1 mm 1 mps 756 mmHg 49%
    12:00 +33°C° 0 mm 1 mps 755 mmHg 51%
    13:00 +34°C° 0 mm 2 mps 755 mmHg 53%
    14:00 +34°C° 0 mm 2 mps 754 mmHg 55%
    15:00 +31°C° 0 mm 2 mps 754 mmHg 64%
    16:00 +29°C° 0 mm 2 mps 754 mmHg 73%
    17:00 +28°C° 0 mm 1 mps 754 mmHg 82%
    18:00 +27°C° 0 mm 1 mps 755 mmHg 85%
    19:00 +26°C° 0 mm 1 mps 756 mmHg 88%
    20:00 +26°C° 0 mm 1 mps 756 mmHg 90%
    21:00 +26°C° 0 mm 1 mps 756 mmHg 90%
    22:00 +25°C° 0 mm 1 mps 756 mmHg 90%
    23:00 +25°C° 0 mm 1 mps 756 mmHg 90%

    29 November, Wednesday

    Time Temperature Precipitation Wind Pressure Humidity
    00:00 +25°C° 0 mm 1 mps 756 mmHg 90%
    01:00 +25°C° 0 mm 1 mps 756 mmHg 89%
    02:00 +24°C° 0 mm 1 mps 756 mmHg 88%
    03:00 +24°C° 0 mm 1 mps 756 mmHg 86%
    04:00 +24°C° 0 mm 2 mps 756 mmHg 84%
    05:00 +24°C° 0 mm 2 mps 756 mmHg 83%
    06:00 +26°C° 0 mm 2 mps 757 mmHg 75%
    07:00 +28°C° 0 mm 1 mps 757 mmHg 68%
    08:00 +29°C° 0 mm 1 mps 758 mmHg 61%
    09:00 +31°C° 0 mm 1 mps 757 mmHg 57%
    10:00 +33°C° 0 mm 1 mps 757 mmHg 52%
    11:00 +34°C° 0 mm 1 mps 757 mmHg 48%
    12:00 +35°C° 0 mm 2 mps 756 mmHg 50%
    13:00 +35°C° 0 mm 2 mps 755 mmHg 52%
    14:00 +34°C° 0 mm 3 mps 754 mmHg 54%
    15:00 +31°C° 0 mm 2 mps 755 mmHg 64%
    16:00 +30°C° 0 mm 2 mps 755 mmHg 74%
    17:00 +28°C° 0 mm 2 mps 755 mmHg 83%
    18:00 +27°C° 0 mm 2 mps 755 mmHg 86%
    19:00 +27°C° 0 mm 2 mps 756 mmHg 88%
    20:00 +26°C° 0 mm 2 mps 757 mmHg 91%
    21:00 +26°C° 0 mm 2 mps 757 mmHg 89%
    22:00 +26°C° 0 mm 2 mps 757 mmHg 88%
    23:00 +25°C° 0 mm 2 mps 757 mmHg 86%

    30 November, Thursday

    Time Temperature Precipitation Wind Pressure Humidity
    00:00 +25°C° 0 mm 2 mps 756 mmHg 84%
    01:00 +25°C° 0 mm 2 mps 756 mmHg 82%
    02:00 +25°C° 0 mm 2 mps 756 mmHg 80%
    03:00 +25°C° 0 mm 2 mps 756 mmHg 77%
    04:00 +25°C° 0 mm 1 mps 756 mmHg 75%
    05:00 +25°C° 0 mm 1 mps 756 mmHg 72%
    06:00 +26°C° 0 mm 1 mps 757 mmHg 66%
    07:00 +28°C° 0 mm 1 mps 757 mmHg 59%
    08:00 +30°C° 0 mm 1 mps 757 mmHg 53%
    09:00 +32°C° 0 mm 1 mps 757 mmHg 49%
    10:00 +34°C° 0 mm 1 mps 757 mmHg 45%
    11:00 +35°C° 0 mm 1 mps 756 mmHg 40%
    12:00 +36°C° 0 mm 2 mps 755 mmHg 44%
    13:00 +35°C° 0 mm 2 mps 755 mmHg 47%
    14:00 +35°C° 0 mm 3 mps 754 mmHg 50%
    15:00 +32°C° 0 mm 2 mps 754 mmHg 61%
    16:00 +30°C° 0 mm 2 mps 754 mmHg 72%
    17:00 +28°C° 0 mm 2 mps 754 mmHg 83%
    18:00 +27°C° 0 mm 2 mps 755 mmHg 85%
    19:00 +26°C° 0 mm 2 mps 756 mmHg 86%
    20:00 +26°C° 0 mm 2 mps 756 mmHg 88%
    21:00 +26°C° 0 mm 2 mps 756 mmHg 84%
    22:00 +25°C° 0 mm 2 mps 756 mmHg 80%
    23:00 +25°C° 0 mm 1 mps 756 mmHg 76%
    Show more